Вернуться в каталог

CZ-6A DEB

АктивенSSO
NORAD 54472·DEBRIS·🇨🇳 China

Запущен Nov 11, 2022 с Taiyuan Satellite Launch Center

Loading…

Ближайшие Пролёты (ближайшие 24 часа)

TLE

СвежийSource: Space-Track

Эпоха: Sep 14, 2026, 00:17 UTC

1 54472U 22151GY  26257.01249551  .00000061  00000-0  49637-4 0  9992
2 54472  98.7835 276.7578 0005053 136.9356 223.2216 14.19927874198651

Отслеживайте CZ-6A DEB в реальном времени с AllMySat

Download on the App Store